Regional Weather Roundup
Issued by NWS

Home | Current Version | Previous Version | Text Only | Print | Product List | Glossary On
Versions: 1 2 3 4 5 6 7 8 9 10 11 12 13 14 15 16 17 18 19 20 21 22 23 24 25 26 27 28 29 30 31 32 33 34 35 36 37 38 39 40 41 42 43 44 45 46 47 48 49 50
000
ASUS45 KTFX 311610
RWRMT
MONTANA REGIONAL WEATHER ROUNDUP
NATIONAL WEATHER SERVICE GREAT FALLS MT
1000 AM MDT TUE MAY 31 2016

NOTE: "FAIR" INDICATES FEW OR NO CLOUDS BELOW 12000 FEET WITH NO
SIGNIFICANT WEATHER AND/OR OBSTRUCTIONS TO VISIBILITY.

MTZ001>007-043-311700-
WEST OF THE DIVIDE

CITY           SKY/WX    TMP DP  RH WIND       PRES   REMARKS
KALISPELL      SUNNY     58  40  51 E6        30.21F
MISSOULA       SUNNY     55  38  52 CALM      30.23F
BUTTE          SUNNY     49  31  49 VRB3      30.27S
MULLAN PASS    SUNNY     49  29  46 VRB3      30.24S
ANACONDA         N/A     52  32  46 NE6       30.26S
DEER LODGE       N/A     52  36  54 CALM      30.27F
EUREKA           N/A     55  39  54 CALM      30.25F
HAMILTON         N/A     55  34  44 CALM      30.22F
LIBBY            N/A     55  39  54 CALM      30.23F
$$

MTZ008-052>055-311700-
SOUTHWEST MONTANA

CITY           SKY/WX    TMP DP  RH WIND       PRES   REMARKS
BOZEMAN        PTSUNNY   51  36  56 NW6       30.27S
DILLON         SUNNY     52  35  52 NE8       30.24F
W YELLOWSTONE  MOSUNNY   46  25  42 NE15G22   30.25S
ENNIS          SUNNY     50  32  50 N12G17    30.30F
$$

MTZ009-010-012-014-046-048-049-054-311700-
EAST SLOPES AND CENTRAL MONTANA

CITY           SKY/WX    TMP DP  RH WIND       PRES   REMARKS
CUT BANK       MOSUNNY   51  37  58 N13G22    30.24S
GREAT FALLS    MOSUNNY   53  36  52 N15       30.26S
MALMSTROM AFB  PTSUNNY   52  40  62 NW13      30.26S
HELENA         CLOUDY    53  37  54 VRB7      30.27S
CHOTEAU          N/A     54  37  54 N13G22    30.27S
$$

MTZ011-013-016-021-045-047-050-051-311700-
NORTH CENTRAL MONTANA

CITY           SKY/WX    TMP DP  RH WIND       PRES   REMARKS
HAVRE          LGT RAIN  50  46  86 NW14      30.17S
LEWISTOWN      LGT RAIN  43  40  89 W17G25    30.21R
N BAR RANCH    CLOUDY    43  39  87 NW22G32   30.18R
CHINOOK          N/A     54  48  82 NW12G20   30.15R
$$

MTZ017>020-022>027-061-062-311700-
NORTHEAST MONTANA

CITY           SKY/WX    TMP DP  RH WIND       PRES   REMARKS
GLASGOW        LGT RAIN  54  50  86 N23       29.98R
JORDAN           N/A     51  49  92 NW22G31   30.00R
SIDNEY         CLOUDY    54  50  87 N24       29.78R
WOLF POINT     LGT RAIN  56  51  84 N18G30    29.90R
POPLAR           N/A     54  52  94 N18G28    29.87R
$$

MTZ028>42-056>058-311700-
SOUTHCENTRAL AND SOUTHEAST MONTANA

CITY           SKY/WX    TMP DP  RH WIND       PRES   REMARKS
BAKER          HVY RAIN  50  32  50 NW17G30   29.83S
BILLINGS       CLOUDY    52  34  50 NW23G29   30.16R
LIVINGSTON     MOSUNNY   51  32  48 NW14G23   30.24F
MILES CITY     LGT RAIN  50  49  96 NW20G35   29.95R FOG
FORSYTH          N/A     48  46  93 W21G32    30.03R
$$

REGIONAL REPORTS...DAKOTAS

CITY           SKY/WX    TMP DP  RH WIND       PRES   REMARKS
WILLISTON      LGT RAIN  53  48  83 N30G41    29.74R
MINOT          SUNNY     62  48  60 SW18      29.61F
DICKINSON      LGT RAIN  50  47  89 W22       29.71F
BEACH          LGT RAIN  50  50 100 NW24G40   29.80S
CROSBY         RAIN      52  52 100 N29G39    29.78R
WATFORD CITY   LGT RAIN  52  52 100 N23G35    29.68R
BISMARCK       CLOUDY    57  47  69 W15G24    29.73F
GRAND FORKS    CLOUDY    67  57  70 SW14      29.68S
FARGO          CLOUDY    64  54  69 SW18G26   29.75R
BUFFALO SD       N/A     49  45  86 W28       29.80F
RAPID CITY     PTSUNNY   61  34  36 W23G30    29.96F
$$

REGIONAL REPORTS...WYOMING/IDAHO/WASHINGTON

CITY           SKY/WX    TMP DP  RH WIND       PRES   REMARKS
GILLETTE       CLOUDY    50  33  52 NW28G39   30.07R
SHERIDAN       CLOUDY    56  35  45 NW30G40   30.12S
BUFFALO WY     SUNNY     53  33  46 N35G49    30.09F
CODY           SUNNY     52  36  54 NE7       30.19S
YELLOWSTONE LA   N/A     44  21  40 NW7       30.28S
IDAHO FALLS    SUNNY     58  34  40 N13       30.18F
SALMON         SUNNY     54  32  43 W3        30.19F
BOISE          SUNNY     60  35  39 SE3       30.14R
SPOKANE        MOSUNNY   59  39  47 E10       30.17F
$$

REGIONAL REPORTS...ALBERTA

CITY           SKY/WX    TMP DP  RH WIND       PRES   REMARKS
EDMONTON       PTSUNNY   55  45  67 NW3       30.20F
CALGARY        MOSUNNY   52  37  58 CALM      30.22F
LETHBRIDGE     MOSUNNY   55  41  58 NW14G21   30.23F
MEDICINE HAT   LGT RAIN  50  48  93 NW12      30.18S
WATERTON GATE    N/A     54  37  54 SE2         N/A
MILK RIVER       N/A     52  41  66 N16G24      N/A
$$

REGIONAL REPORTS...SASKATCHEWAN

CITY           SKY/WX    TMP DP  RH WIND       PRES   REMARKS
SWIFT CURRENT  PTSUNNY   55  50  82 N20G25    30.05S
REGINA         PTSUNNY   54  48  82 N22G29    29.93S
SASKATOON      PTSUNNY   55  50  82 NE12      30.06F
CYPRESS HILLS    N/A     45  43  93 NW9G17      N/A
VAL MARIE        N/A     55  46  71 N24         N/A
ROCKGLEN         N/A     50  50 100 N22G29      N/A
ASSINIBOIA       N/A     54  48  82 N9          N/A
$$



USA.gov is the U.S. government's official web portal to all federal, state and local government web resources and services.